Muncie, IN

6:37 AM EDT on July 23, 2016 (GMT -0400)
Delaware County-Johnson

Weather History for KMIE - December, 2013

Change the Weather History Date:

Wednesday, December 18, 2013

  Actual Average Record
Temperature  
Mean Temperature 26 °F 30 °F  
Max Temperature 35 °F 37 °F 62 °F (1984)
Min Temperature 16 °F 23 °F -7 °F (1985)
Degree Days  
Heating Degree Days 39 35  
Month to date heating degree days 675 586  
Since 1 July heating degree days 1926 1721  
Cooling Degree Days 0 0  
Month to date cooling degree days 0 0  
Year to date cooling degree days 973 956  
Moisture  
Dew Point 15 °F    
Average Humidity 65    
Maximum Humidity 81    
Minimum Humidity 49    
Precipitation  
Precipitation 0.00 in 0.09 in 0.56 in (1990)
Month to date precipitation 0.66 1.70  
Year to date precipitation 35.08 38.94  
Sea Level Pressure  
Sea Level Pressure 30.13 in    
Wind  
Wind Speed 12 mph (SW)    
Max Wind Speed 22 mph    
Max Gust Speed 30 mph    
Visibility 10 miles    
Events      
T = Trace of Precipitation, MM = Missing Value Source: NWS Daily Summary

Daily Weather History Graph

Daily Weather History Graph

Search for Another Location

Airport or City:

Trip Planner

Search our weather history database for the weather conditions in past years. The results will help you decide how hot, cold, wet, or windy it might be!

Date:

Astronomy

Dec. 18, 2013 Rise Set
Actual Time 7:59 AM EST 5:17 PM EST
Civil Twilight 7:28 AM EST 5:48 PM EST
Nautical Twilight 6:54 AM EST 6:22 PM EST
Astronomical Twilight 6:21 AM EST 6:55 PM EST
Moon 6:49 PM EST (12/18) 8:38 AM EST (12/18)
Length of Visible Light 10h 19m
Length of Day
9h 18m
Full, 98% of the Moon is Illuminated
Dec 18
Full
Dec 25
Last Quarter
Jan 1
New
Jan 7
First Quarter
Jan 15
Full

Hourly Weather History & Observations

Time (EST) Temp. Windchill Dew Point Humidity Pressure Visibility Wind Dir Wind Speed Gust Speed Precip Events Conditions
12:53 AM 24.1 °F 14.4 °F 18.0 °F 77% 30.13 in 10.0 mi WSW 9.2 mph - N/A   Mostly Cloudy
1:53 AM 21.9 °F 11.0 °F 16.0 °F 78% 30.13 in 10.0 mi West 10.4 mph - N/A   Clear
2:53 AM 23.0 °F 11.7 °F 16.0 °F 74% 30.14 in 10.0 mi WSW 11.5 mph - N/A   Overcast
3:13 AM 23.0 °F 12.4 °F 17.1 °F 78% 30.12 in 10.0 mi WSW 10.4 mph - N/A   Overcast
3:53 AM 23.0 °F 11.7 °F 17.1 °F 78% 30.15 in 10.0 mi WSW 11.5 mph - N/A   Overcast
4:53 AM 21.9 °F 11.7 °F 16.0 °F 78% 30.15 in 10.0 mi WSW 9.2 mph - N/A   Overcast
5:53 AM 18.0 °F 6.1 °F 12.0 °F 78% 30.17 in 10.0 mi West 10.4 mph - N/A   Partly Cloudy
6:53 AM 17.1 °F 6.6 °F 10.9 °F 77% 30.18 in 10.0 mi WSW 8.1 mph - N/A   Clear
7:53 AM 16.0 °F 4.4 °F 10.9 °F 81% 30.21 in 10.0 mi WSW 9.2 mph - N/A   Clear
8:53 AM 16.0 °F 3.6 °F 10.9 °F 81% 30.22 in 10.0 mi WSW 10.4 mph - N/A   Clear
9:53 AM 19.0 °F 6.8 °F 10.9 °F 71% 30.23 in 10.0 mi WSW 11.5 mph - N/A   Clear
10:53 AM 21.0 °F 9.9 °F 12.0 °F 68% 30.25 in 10.0 mi WSW 10.4 mph - N/A   Clear
11:53 AM 23.0 °F 11.7 °F 14.0 °F 68% 30.25 in 10.0 mi WSW 11.5 mph - N/A   Clear
12:53 PM 26.1 °F 16.8 °F 14.0 °F 60% 30.23 in 10.0 mi West 9.2 mph - N/A   Clear
1:53 PM 27.0 °F 17.3 °F 15.1 °F 61% 30.20 in 10.0 mi South 10.4 mph - N/A   Clear
2:53 PM 27.0 °F 16.1 °F 16.0 °F 63% 30.17 in 10.0 mi South 12.7 mph - N/A   Clear
3:53 PM 28.9 °F 18.6 °F 15.1 °F 56% 30.15 in 10.0 mi SSW 12.7 mph 19.6 mph N/A   Clear
4:53 PM 28.0 °F 18.1 °F 15.1 °F 58% 30.12 in 10.0 mi South 11.5 mph - N/A   Clear
5:53 PM 28.9 °F 17.7 °F 15.1 °F 56% 30.08 in 10.0 mi South 15.0 mph - N/A   Clear
6:53 PM 30.9 °F 20.2 °F 14.0 °F 50% 30.05 in 10.0 mi South 15.0 mph - N/A   Clear
7:53 PM 32.0 °F 19.8 °F 16.0 °F 52% 30.03 in 10.0 mi South 20.7 mph 27.6 mph N/A   Clear
8:53 PM 32.0 °F 20.8 °F 17.1 °F 54% 30.01 in 10.0 mi South 17.3 mph 26.5 mph N/A   Clear
9:53 PM 33.1 °F 22.6 °F 17.1 °F 52% 30.00 in 10.0 mi SSW 16.1 mph 28.8 mph N/A   Clear
10:53 PM 34.0 °F 23.4 °F 18.0 °F 52% 29.99 in 10.0 mi SSW 17.3 mph 24.2 mph N/A   Clear
11:53 PM 35.1 °F 24.8 °F 18.0 °F 50% 29.99 in 10.0 mi SSW 17.3 mph 26.5 mph N/A   Clear